CW1490 Weather Reports


time (UTC)temp
C
wind
direction
speed
KPH
gust
KPH
rain 1hr
cm
rain 24hr
cm
rain mn
cm
humidity
%
barometer
mb
20260903123515 17 161 3.2 9.7 0.00 0.05 0.05 93 1015.2
20260903123033 17 198 3.2 6.4 0.00 0.05 0.05 93 1015.1
20260903122519 17 243 3.2 6.4 0.00 0.05 0.05 93 1015.3
20260903122008 16 211 3.2 6.4 0.00 0.05 0.05 93 1015.3
20260903121526 16 178 3.2 6.4 0.00 0.05 0.05 94 1015.4
20260903121010 16 221 3.2 6.4 0.00 0.05 0.05 94 1015.3
20260903120512 16 221 1.6 4.8 0.00 0.05 0.05 93 1015.3
20260903120028 16 153 1.6 11.3 0.00 0.05 0.05 93 1015.4
20260903115515 16 161 3.2 11.3 0.00 0.05 0.05 93 1015.4
20260903115016 16 229 6.4 11.3 0.00 0.05 0.05 93 1015.4
20260903114533 16 213 6.4 11.3 0.00 0.05 0.05 93 1015.5
20260903114017 16 178 3.2 9.7 0.00 0.05 0.05 93 1015.3
20260903113521 16 221 4.8 9.7 0.00 0.05 0.05 93 1015.5
20260903113033 16 205 4.8 9.7 0.00 0.05 0.05 93 1015.5
20260903112516 16 221 6.4 9.7 0.00 0.05 0.05 93 1015.6
20260903112022 16 265 1.6 8.0 0.00 0.05 0.05 93 1015.5
20260903111535 16 211 3.2 8.0 0.00 0.05 0.05 93 1015.5
20260903111020 16 196 3.2 9.7 0.00 0.05 0.05 93 1015.7
20260903110513 16 221 3.2 9.7 0.00 0.05 0.05 93 1015.7
20260903110026 16 227 3.2 8.0 0.00 0.05 0.05 93 1015.7
20260903105511 16 214 3.2 6.4 0.00 0.05 0.05 93 1015.7
20260903105016 16 238 3.2 6.4 0.00 0.05 0.05 93 1015.7
20260903104531 16 196 3.2 6.4 0.00 0.05 0.05 93 1015.7
20260903104021 16 193 1.6 6.4 0.00 0.05 0.05 93 1015.6
20260903103514 16 178 0.0 4.8 0.00 0.05 0.05 93 1015.6
20260903103030 16 51 0.0 8.0 0.00 0.05 0.05 93 1015.4
20260903102516 16 291 3.2 8.0 0.00 0.05 0.05 93 1015.4
20260903102018 16 209 3.2 6.4 0.00 0.05 0.05 93 1015.3
20260903101511 16 205 3.2 11.3 0.00 0.05 0.05 92 1015.4
20260903101004 16 218 6.4 11.3 0.00 0.05 0.05 92 1015.4
20260903100504 16 216 4.8 11.3 0.00 0.05 0.05 92 1015.4
20260903100013 16 232 6.4 11.3 0.00 0.05 0.05 92 1015.4
20260903095503 16 219 4.8 9.7 0.00 0.05 0.05 92 1015.4
20260903095003 16 245 3.2 11.3 0.00 0.05 0.05 92 1015.4
20260903094505 16 227 4.8 11.3 0.00 0.05 0.05 92 1015.5
20260903094006 16 238 4.8 9.7 0.00 0.05 0.05 92 1015.5
20260903093505 16 205 3.2 9.7 0.00 0.05 0.05 92 1015.6
20260903093006 16 265 3.2 6.4 0.00 0.05 0.05 92 1015.7
20260903092508 16 178 1.6 14.5 0.00 0.05 0.05 92 1015.6
20260903092007 16 265 3.2 14.5 0.00 0.05 0.05 92 1015.7
20260903091513 16 245 4.8 8.0 0.00 0.05 0.05 92 1015.5
20260903091008 16 213 3.2 8.0 0.00 0.05 0.05 92 1015.5
20260903090508 16 221 4.8 11.3 0.00 0.05 0.05 92 1015.6
20260903090018 16 229 4.8 11.3 0.00 0.05 0.05 92 1015.7
20260903085507 16 214 4.8 11.3 0.00 0.05 0.05 91 1015.7
20260903085007 16 196 4.8 11.3 0.00 0.05 0.05 91 1015.8
20260903084519 16 210 3.2 8.0 0.00 0.05 0.05 91 1015.9
20260903084003 16 215 4.8 8.0 0.00 0.05 0.05 91 1016.2
20260903083503 16 209 4.8 8.0 0.00 0.05 0.05 91 1016.3
20260903083007 16 178 1.6 8.0 0.00 0.05 0.05 91 1016.2
20260903082507 16 196 4.8 14.5 0.00 0.05 0.05 91 1016.1
20260903082006 16 202 4.8 14.5 0.00 0.05 0.05 91 1016.2
20260903081513 16 205 4.8 12.9 0.00 0.05 0.05 90 1016.3
20260903081010 16 207 4.8 8.0 0.00 0.05 0.05 91 1016.3
20260903080512 16 229 1.6 6.4 0.00 0.05 0.05 90 1016.3
20260903080016 16 161 1.6 3.2 0.00 0.05 0.05 90 1016.2
20260903075506 16 325 0.0 3.2 0.00 0.05 0.05 90 1016.3
20260903075010 16 309 0.0 1.6 0.00 0.05 0.05 90 1016.1
20260903074520 16 51 0.0 1.6 0.00 0.05 0.05 90 1016.1
20260903074010 16 93 0.0 3.2 0.00 0.05 0.05 90 1016.1
20260903073509 16 325 0.0 3.2 0.00 0.05 0.05 90 1016.2
20260903073019 17 291 0.0 4.8 0.00 0.05 0.05 90 1016.2
20260903072510 17 9 0.0 6.4 0.00 0.05 0.05 89 1016.2
20260903072002 17 234 3.2 8.0 0.00 0.05 0.05 89 1016.2
20260903071523 17 178 3.2 8.0 0.03 0.05 0.05 89 1016.3
20260903071003 17 201 3.2 8.0 0.03 0.05 0.05 89 1016.5
20260903070503 17 178 3.2 8.0 0.03 0.05 0.05 89 1016.6
20260903070050 17 51 0.0 4.8 0.03 0.05 0.05 88 1016.7
20260903065506 17 215 1.6 4.8 0.05 0.05 0.05 88 1016.5
20260903065010 17 232 3.2 8.0 0.05 0.05 0.05 88 1016.5
20260903064518 17 221 3.2 8.0 0.05 0.05 0.05 87 1016.5
20260903064012 17 196 1.6 4.8 0.05 0.05 0.05 87 1016.6
20260903063515 17 146 1.6 11.3 0.05 0.05 0.05 87 1016.6
20260903063022 17 51 0.0 11.3 0.05 0.05 0.05 87 1016.4
20260903062510 17 238 4.8 11.3 0.05 0.05 0.05 86 1016.3
20260903062015 17 208 3.2 14.5 0.05 0.05 0.05 86 1016.3
20260903061527 17 221 6.4 16.1 0.03 0.03 0.03 85 1016.7
20260903061013 17 178 4.8 16.1 0.03 0.03 0.03 85 1016.7
20260903060505 17 198 6.4 16.1 0.03 0.03 0.03 84 1016.9
20260903060015 17 198 8.0 16.1 0.03 0.03 0.03 83 1017.1
20260903055507 18 209 4.8 11.3 0.00 0.00 0.00 83 1017.1
20260903055005 18 205 4.8 12.9 0.00 0.00 0.00 82 1017.3
20260903054536 18 227 4.8 16.1 0.00 0.00 0.00 82 1017.4
20260903054008 18 216 6.4 16.1 0.00 0.00 0.00 81 1017.6
20260903053508 18 223 9.7 16.1 0.00 0.00 0.00 80 1017.7
20260903053024 18 221 8.0 17.7 0.00 0.00 0.00 79 1017.8
20260903052512 18 210 9.7 22.5 0.00 0.00 0.00 79 1017.9
20260903052014 18 186 8.0 22.5 0.00 0.00 0.00 78 1017.9
20260903051528 18 219 6.4 11.3 0.00 0.00 0.00 78 1017.9
20260903051016 18 214 8.0 19.3 0.00 0.00 0.00 77 1017.9
20260903050513 18 219 9.7 19.3 0.00 0.00 0.00 77 1017.8
20260903050040 18 229 3.2 17.7 0.00 0.00 0.00 76 1017.8
20260903045513 18 218 11.3 17.7 0.00 0.00 0.00 76 1017.8
20260903045006 18 265 4.8 16.1 0.00 0.00 0.00 76 1017.7
20260903044514 18 193 8.0 16.1 0.00 0.00 0.00 77 1017.7
20260903044008 18 219 8.0 16.1 0.00 0.00 0.00 77 1017.8
20260903043510 18 153 4.8 11.3 0.00 0.00 0.00 77 1017.8
20260903043023 18 224 6.4 11.3 0.00 0.00 0.00 77 1017.8
20260903042511 18 214 4.8 14.5 0.00 0.00 0.00 77 1017.9
20260903042014 18 225 6.4 14.5 0.00 0.00 0.00 77 1017.9
20260903041527 18 205 6.4 20.9 0.00 0.00 0.00 77 1018.1
20260903041014 18 221 8.0 20.9 0.00 0.00 0.00 77 1018.1
20260903040514 18 227 6.4 12.9 0.00 0.00 0.00 77 1018.1
20260903040031 18 191 6.4 16.1 0.00 0.00 0.00 78 1018.2
20260903035516 19 242 6.4 16.1 0.00 0.00 0.00 78 1018.4
20260903035016 19 214 8.0 16.1 0.00 0.00 0.00 78 1018.4
20260903034528 19 194 8.0 16.1 0.00 0.00 0.00 77 1018.2
20260903034017 19 194 6.4 19.3 0.00 0.00 0.00 77 1018.1
20260903033515 19 208 8.0 19.3 0.00 0.00 0.00 78 1018.1
20260903033015 19 224 6.4 17.7 0.00 0.00 0.00 78 1018.3
20260903032510 19 146 8.0 16.1 0.00 0.00 0.00 78 1018.4
20260903032016 19 200 4.8 16.1 0.00 0.00 0.00 78 1018.4
20260903031524 19 219 4.8 16.1 0.00 0.00 0.00 78 1018.4
20260903031014 19 225 8.0 16.1 0.00 0.00 0.00 78 1018.5
20260903030513 19 229 4.8 12.9 0.00 0.00 0.00 78 1018.4
20260903030028 19 220 6.4 11.3 0.00 0.00 0.00 79 1018.6
20260903025515 19 205 4.8 17.7 0.00 0.00 0.00 79 1018.5
20260903025014 19 188 9.7 20.9 0.00 0.00 0.00 79 1018.7
20260903024533 19 247 8.0 20.9 0.00 0.00 0.00 79 1018.5
20260903024015 19 219 8.0 16.1 0.00 0.00 0.00 80 1018.7
20260903023517 19 229 6.4 17.7 0.00 0.00 0.00 80 1018.8
20260903023039 19 237 6.4 17.7 0.00 0.00 0.00 81 1018.8
20260903022518 19 232 8.0 19.3 0.00 0.00 0.00 81 1018.8
20260903022016 19 223 9.7 19.3 0.00 0.00 0.00 82 1019.0
20260903021518 19 190 6.4 14.5 0.00 0.00 0.00 83 1018.7
20260903021011 19 214 9.7 14.5 0.00 0.00 0.00 84 1018.9
20260903020515 18 207 8.0 16.1 0.00 0.00 0.00 85 1019.1
20260903020025 18 225 9.7 16.1 0.00 0.00 0.00 85 1019.2
20260903015515 19 231 8.0 12.9 0.00 0.00 0.00 86 1019.2
20260903015014 19 227 6.4 12.9 0.00 0.00 0.00 87 1019.4
20260903014528 19 214 6.4 12.9 0.00 0.00 0.00 88 1019.4
20260903014016 19 234 4.8 9.7 0.00 0.00 0.00 88 1019.5
20260903013516 19 229 3.2 11.3 0.00 0.00 0.00 88 1019.5
20260903013031 19 227 6.4 11.3 0.00 0.00 0.00 88 1019.5
20260903012518 19 212 1.6 4.8 0.00 0.00 0.00 88 1019.4
20260903012015 19 119 1.6 6.4 0.00 0.00 0.00 88 1019.5
20260903011522 19 188 1.6 6.4 0.00 0.00 0.00 88 1019.5
20260903011001 19 282 1.6 11.3 0.00 0.00 0.00 88 1019.6
20260903010515 19 221 4.8 11.3 0.00 0.00 0.00 88 1019.3
20260903010003 19 245 6.4 8.0 0.00 0.00 0.00 88 1019.0
20260903005512 19 178 4.8 8.0 0.00 0.00 0.00 87 1019.3
20260903005002 19 178 0.0 6.4 0.00 0.00 0.00 87 1019.7
20260903004505 19 334 1.6 11.3 0.00 0.00 0.00 87 1019.5
20260903004003 19 273 1.6 11.3 0.00 0.00 0.00 87 1019.3
20260903003504 19 254 3.2 11.3 0.00 0.00 0.00 88 1018.8
20260903003009 19 257 3.2 12.9 0.00 0.00 0.00 88 1018.6
20260903002503 19 224 8.0 17.7 0.00 0.00 0.00 88 1018.5
20260903002008 19 221 8.0 17.7 0.00 0.00 0.00 88 1018.4
20260903001522 19 210 8.0 16.1 0.00 0.00 0.00 88 1018.4
20260903001010 20 221 6.4 16.1 0.00 0.00 0.00 88 1018.4
20260903000516 20 231 6.4 9.7 0.00 0.00 0.00 88 1018.4
20260903000035 20 240 4.8 9.7 0.00 0.00 0.00 88 1018.8
20260902235518 20 227 3.2 8.0 0.00 0.03 0.00 87 1018.8
20260902235004 20 227 1.6 9.7 0.00 0.03 0.00 87 1019.0
20260902234504 20 242 6.4 9.7 0.00 0.03 0.00 87 1019.1
20260902234002 20 221 3.2 6.4 0.00 0.03 0.00 87 1019.1
20260902233504 20 265 1.6 4.8 0.00 0.03 0.00 86 1019.2
20260902233010 20 221 1.6 4.8 0.00 0.03 0.00 86 1019.1
20260902232503 20 334 1.6 4.8 0.00 0.03 0.00 86 1019.3
20260902232003 20 93 0.0 4.8 0.00 0.03 0.00 85 1019.4
20260902231515 20 232 0.0 4.8 0.00 0.03 0.00 85 1019.6
20260902231006 20 221 0.0 6.4 0.00 0.03 0.00 85 1019.8
20260902230511 20 247 1.6 6.4 0.00 0.05 0.00 85 1019.9
20260902230016 20 196 3.2 6.4 0.00 0.05 0.00 85 1019.9
20260902225510 20 190 1.6 11.3 0.00 0.05 0.00 85 1020.0
20260902225013 20 221 1.6 11.3 0.00 0.05 0.00 85 1020.2
20260902224524 20 207 4.8 9.7 0.00 0.05 0.00 85 1020.3
20260902224012 21 165 4.8 8.0 0.00 0.05 0.00 85 1020.4
20260902223502 21 178 1.6 4.8 0.00 0.05 0.00 85 1020.5
20260902223009 21 334 1.6 3.2 0.00 0.05 0.00 84 1020.5
20260902222502 21 161 0.0 6.4 0.00 0.05 0.00 84 1020.5
20260902222004 21 238 1.6 6.4 0.00 0.05 0.00 84 1020.5
20260902221508 21 137 3.2 6.4 0.00 0.05 0.00 84 1020.4
20260902221003 21 178 1.6 6.4 0.00 0.05 0.00 83 1020.6
20260902220507 21 186 3.2 6.4 0.00 0.05 0.00 83 1020.6
20260902220015 21 163 3.2 6.4 0.00 0.05 0.00 83 1020.6
20260902215508 21 178 1.6 6.4 0.00 0.05 0.00 84 1020.6
20260902215010 21 221 1.6 8.0 0.00 0.05 0.00 84 1020.5
20260902214546 21 137 1.6 8.0 0.00 0.05 0.00 84 1020.3
20260902214012 21 153 3.2 6.4 0.00 0.05 0.00 84 1020.3
20260902213513 21 178 0.0 4.8 0.00 0.05 0.00 84 1020.5
20260902213026 21 178 1.6 4.8 0.00 0.05 0.00 84 1020.5
20260902212517 21 334 1.6 4.8 0.00 0.05 0.00 84 1020.4
20260902212017 21 178 0.0 6.4 0.00 0.05 0.00 83 1020.4
20260902211531 21 205 3.2 6.4 0.00 0.05 0.00 83 1020.3
20260902211004 21 178 1.6 4.8 0.00 0.05 0.00 83 1020.3
20260902210503 21 178 1.6 6.4 0.00 0.05 0.00 82 1020.4
20260902210013 21 205 0.0 6.4 0.00 0.05 0.00 82 1020.4
20260902205505 21 227 1.6 6.4 0.00 0.05 0.00 82 1020.4
20260902205007 21 193 3.2 6.4 0.00 0.05 0.00 83 1020.4
20260902204514 21 205 1.6 4.8 0.00 0.05 0.00 80 1020.4
20260902204014 21 221 0.0 6.4 0.00 0.05 0.00 81 1020.4
20260902203512 21 72 0.0 9.7 0.00 0.05 0.00 81 1020.3
20260902203021 21 171 3.2 9.7 0.00 0.05 0.00 81 1020.2
20260902202517 21 213 1.6 6.4 0.00 0.05 0.00 80 1020.2
20260902202015 21 193 3.2 8.0 0.00 0.05 0.00 81 1020.3
20260902201536 21 236 3.2 8.0 0.00 0.05 0.00 80 1020.3
20260902201012 21 225 4.8 6.4 0.00 0.05 0.00 81 1020.6
20260902200514 21 225 0.0 8.0 0.00 0.05 0.00 81 1020.6
20260902200008 21 188 4.8 8.0 0.00 0.05 0.00 80 1020.9
20260902195507 21 265 1.6 6.4 0.00 0.05 0.00 79 1021.0
20260902195005 21 205 3.2 11.3 0.00 0.05 0.00 79 1021.0
20260902194517 21 212 3.2 14.5 0.00 0.05 0.00 79 1020.9
20260902194009 21 243 8.0 14.5 0.00 0.05 0.00 78 1020.9
20260902193510 21 238 3.2 12.9 0.00 0.05 0.00 79 1020.8
20260902193022 21 178 8.0 16.1 0.00 0.05 0.00 77 1020.9
20260902192508 21 211 8.0 16.1 0.00 0.05 0.00 78 1020.9
20260902192016 21 187 4.8 12.9 0.00 0.05 0.00 78 1020.9
20260902191527 21 195 4.8 14.5 0.00 0.05 0.00 79 1020.9
20260902191012 21 231 6.4 16.1 0.00 0.05 0.00 78 1021.2
20260902190515 21 334 4.8 16.1 0.00 0.05 0.00 79 1021.2
20260902190029 21 212 3.2 8.0 0.00 0.05 0.00 79 1021.2
20260902185516 21 265 3.2 8.0 0.00 0.05 0.00 79 1021.3
20260902185019 21 171 3.2 6.4 0.00 0.05 0.00 78 1021.4
20260902184512 21 209 0.0 4.8 0.00 0.05 0.00 79 1021.6
20260902184007 21 178 1.6 8.0 0.00 0.05 0.00 79 1021.5
20260902183507 21 123 3.2 9.7 0.00 0.05 0.00 79 1021.5
20260902183018 21 209 3.2 9.7 0.00 0.05 0.00 78 1021.5
20260902182509 21 265 1.6 8.0 0.00 0.05 0.00 79 1021.5
20260902182008 21 257 3.2 8.0 0.00 0.05 0.00 79 1021.4
20260902181523 21 201 3.2 9.7 0.00 0.05 0.00 80 1021.4
20260902181013 21 319 1.6 9.7 0.00 0.05 0.00 79 1021.4
20260902180521 21 252 3.2 11.3 0.00 0.05 0.00 79 1021.3
20260902180031 21 205 6.4 16.1 0.00 0.08 0.00 78 1021.4
20260902175518 21 212 3.2 17.7 0.00 0.08 0.00 79 1021.5
20260902175017 21 190 8.0 17.7 0.00 0.08 0.00 79 1021.5
20260902174543 21 208 8.0 17.7 0.00 0.08 0.00 79 1021.4
20260902174013 21 186 4.8 11.3 0.00 0.10 0.00 80 1021.3
20260902173516 21 234 4.8 12.9 0.00 0.10 0.00 80 1021.4
20260902173032 20 236 6.4 12.9 0.00 0.10 0.00 79 1021.5
20260902172511 20 198 1.6 9.7 0.00 0.10 0.00 80 1021.6
20260902172013 20 186 3.2 9.7 0.00 0.10 0.00 79 1021.7
20260902171517 20 232 3.2 11.3 0.00 0.13 0.00 79 1021.6
20260902171011 20 85 4.8 11.3 0.00 0.13 0.00 80 1021.6
20260902170509 20 165 3.2 16.1 0.00 0.13 0.00 80 1021.7
20260902170033 20 194 8.0 16.1 0.00 0.13 0.00 80 1021.7
20260902165512 20 225 8.0 12.9 0.00 0.13 0.00 81 1021.9
20260902165015 20 227 4.8 11.3 0.00 0.13 0.00 81 1021.9
20260902164543 20 178 4.8 11.3 0.00 0.13 0.00 80 1021.9
20260902164003 20 227 6.4 12.9 0.00 0.13 0.00 81 1021.9
20260902163503 20 205 8.0 12.9 0.00 0.15 0.00 81 1022.0
20260902163009 20 161 4.8 11.3 0.00 0.15 0.00 81 1022.0
20260902162504 20 178 1.6 12.9 0.00 0.15 0.00 81 1021.9
20260902162008 20 213 6.4 12.9 0.00 0.15 0.00 82 1022.0
20260902161523 20 124 4.8 16.1 0.00 0.15 0.00 81 1022.1
20260902161020 20 309 4.8 16.1 0.00 0.18 0.00 82 1022.1
20260902160513 20 238 4.8 12.9 0.00 0.20 0.00 82 1022.0
20260902160033 20 202 8.0 12.9 0.00 0.23 0.00 82 1022.2
20260902155510 20 249 3.2 8.0 0.00 0.25 0.00 82 1022.3
20260902155014 20 165 3.2 8.0 0.00 0.25 0.00 83 1022.3
20260902154529 19 196 3.2 8.0 0.00 0.25 0.00 84 1022.4
20260902154012 19 200 3.2 8.0 0.00 0.28 0.00 82 1022.5
20260902153515 19 200 3.2 11.3 0.00 0.30 0.00 83 1022.5
20260902153033 19 221 6.4 11.3 0.00 0.36 0.00 83 1022.7
20260902152516 19 265 3.2 12.9 0.00 0.41 0.00 84 1022.5
20260902152006 19 169 6.4 12.9 0.00 0.41 0.00 83 1022.6
20260902151512 19 236 4.8 8.0 0.00 0.41 0.00 84 1022.7
20260902151005 19 171 4.8 9.7 0.00 0.41 0.00 84 1022.8
20260902150510 19 217 3.2 9.7 0.00 0.41 0.00 84 1022.9
20260902150033 19 200 6.4 9.7 0.00 0.41 0.00 84 1022.9
20260902145511 19 221 3.2 9.7 0.00 0.41 0.00 84 1022.9
20260902145015 19 119 1.6 9.7 0.00 0.41 0.00 84 1023.0
20260902144529 19 255 3.2 6.4 0.00 0.41 0.00 84 1022.8
20260902144014 19 178 3.2 12.9 0.00 0.41 0.00 85 1022.8
20260902143514 19 146 3.2 14.5 0.00 0.41 0.00 84 1022.8
20260902143030 19 279 4.8 14.5 0.00 0.41 0.00 84 1022.7
20260902142516 19 294 6.4 14.5 0.00 0.41 0.00 83 1022.7
20260902142013 19 219 6.4 14.5 0.00 0.41 0.00 84 1022.7
20260902141535 19 203 4.8 14.5 0.00 0.41 0.00 84 1022.6
20260902141018 19 237 9.7 14.5 0.00 0.41 0.00 83 1022.5
20260902140507 19 236 8.0 17.7 0.00 0.41 0.00 83 1022.5
20260902140017 18 242 9.7 17.7 0.00 0.41 0.00 84 1022.5
20260902135514 18 223 4.8 11.3 0.00 0.41 0.00 85 1022.4
20260902135011 18 221 4.8 11.3 0.00 0.41 0.00 85 1022.5
20260902134523 18 250 6.4 11.3 0.00 0.41 0.00 86 1022.4
20260902134012 18 51 1.6 9.7 0.00 0.41 0.00 86 1022.6
20260902133519 18 196 3.2 9.7 0.00 0.41 0.00 87 1022.4
20260902133033 18 171 3.2 16.1 0.00 0.41 0.00 85 1022.3
20260902132515 18 242 3.2 16.1 0.00 0.41 0.00 86 1022.0
20260902132016 18 196 6.4 12.9 0.00 0.41 0.00 86 1022.0
20260902131528 18 231 3.2 8.0 0.00 0.41 0.00 89 1022.1
20260902131016 18 205 3.2 8.0 0.00 0.41 0.00 89 1022.0
20260902130516 18 221 3.2 8.0 0.00 0.41 0.00 89 1022.1
20260902130033 18 9 3.2 6.4 0.00 0.41 0.00 90 1022.1
20260902125520 18 212 3.2 6.4 0.00 0.41 0.00 90 1022.1
20260902125017 17 221 1.6 6.4 0.00 0.41 0.00 90 1022.2
20260902124518 18 205 3.2 6.4 0.00 0.41 0.00 91 1022.2
20260902124008 17 205 1.6 6.4 0.00 0.41 0.00 91 1022.2